This is the latest recevied weather packets stored in our database for station/object CQ0XSM-11. If no packets are shown the sender has not sent any weather packets the latest 10 day(s).
| Time | Temp. | Humidity | Pressure | Rain* | Wind** | Luminosity | Snow |
|---|---|---|---|---|---|---|---|
| 1777250824 | 13.89° C | 100% | 995.5 hPa | 0 mm | - | - | - |
| 1777250579 | 13.89° C | 100% | 995.5 hPa | 0 mm | - | - | - |
| 1777250247 | 13.89° C | 100% | 995.4 hPa | 0 mm | - | - | - |
| 1777249627 | 13.89° C | 100% | 995.7 hPa | 0 mm | - | - | - |
| 1777249329 | 14.44° C | 100% | 995.6 hPa | 0 mm | - | - | - |
| 1777249013 | 14.44° C | 100% | 995.5 hPa | 0 mm | - | - | - |
| 1777248396 | 15° C | 98% | 995.7 hPa | 0 mm | - | - | - |
| 1777248106 | 15° C | 98% | 995.7 hPa | 0 mm | - | - | - |
| 1777247837 | 15° C | 96% | 995.6 hPa | 0 mm | - | - | - |
| 1777247502 | 15.56° C | 94% | 995.8 hPa | 0 mm | - | - | - |
| 1777247212 | 15.56° C | 95% | 995.8 hPa | 0 mm | - | - | - |
| 1777246922 | 15.56° C | 94% | 995.8 hPa | 0 mm | - | - | - |
| 1777246612 | 15.56° C | 94% | 995.8 hPa | 0 mm | - | - | - |
| 1777246283 | 15.56° C | 94% | 995.8 hPa | 0 mm | - | - | - |
| 1777246014 | 15.56° C | 94% | 995.8 hPa | 0 mm | - | - | - |
| 1777245690 | 15° C | 96% | 995.6 hPa | 0 mm | - | - | - |
| 1777245126 | 15° C | 94% | 995.7 hPa | 0 mm | - | - | - |
| 1777244767 | 15° C | 94% | 995.8 hPa | 0 mm | - | - | - |
| 1777244476 | 15° C | 91% | 995.9 hPa | 0 mm | - | - | - |
| 1777244183 | 15.56° C | 90% | 995.8 hPa | 0 mm | - | - | - |
| 1777243867 | 15.56° C | 90% | 995.8 hPa | 0 mm | - | - | - |
| 1777243554 | 15.56° C | 90% | 995.7 hPa | 0 mm | - | - | - |
| 1777242949 | 15.56° C | 88% | 995.7 hPa | 0 mm | - | - | - |
| 1777242660 | 16.11° C | 86% | 995.7 hPa | 0 mm | - | - | - |
| 1777241738 | 16.11° C | 83% | 995.8 hPa | 0 mm | - | - | - |
* Rain since midnight (hover to see other rain measurements)
** Current wind speed in m/s (hover to see current wind gust speed)